Home > Weather > Dausa > Past weeks

Flag for India Past Weather in Dausa, Rajasthan, India — Yesterday and Last 2 Weeks

Now
93 °F

Haze.


Feels Like: 105 °F
Forecast: 86 / 104 °F
Wind: 8 mph from East

Location: Jaipur / Sanganer

Current Time: Jun 30, 2016 at 8:42:52 AM

Latest Report: Jun 30, 2016 at 8:00 AM


Visibility: 3 mi

Pressure: 29.62 "Hg

Humidity: 56%

Dew Point: 75 °F

Location of DausaLocation

Past Weather in Dausa — Graph

°F

Dausa Temperature Yesterday

Maximum temperature yesterday: 102 °F (at 4:00 PM)
Minimum temperature yesterday: 84 °F (at 12:00 AM)
Average temperature yesterday: 94 °F

High & Low Weather Summary for the Past Weeks

 TemperatureHumidityPressure
High108 °F (Jun 17, 4:30 PM)100% (Jun 30, 3:00 AM)29.74 "Hg (Jun 30, 3:00 AM)
Low73 °F (Jun 30, 3:00 AM)19% (Jun 17, 5:00 PM)29.45 "Hg (Jun 15, 4:00 PM)
Average93 °F49%29.59 "Hg
* Reported Jun 15 6:30 AM — Jun 30 7:00 AM, Dausa, Weather by CustomWeather, © 2016

Note: Actual official high and low records may vary slightly from our data, if they occured in-between our weather recording intervals... More about our weather records

Advertising

Dausa Weather History for the Previous 24 Hours

Scroll right to see more
 ConditionsComfort  
Time TempWeatherWind HumidityBarometerVisibility
7:00 AM
Thu, Jun 30
90 °FHaze.8 mph63%29.59 "Hg2 mi
6:30 AM90 °FHaze.8 mph63%29.59 "Hg2 mi
6:00 AM90 °FPassing clouds.8 mph63%29.59 "Hg2 mi
5:00 AM90 °FPassing clouds.7 mph63%29.59 "Hg2 mi
4:00 AM90 °FPassing clouds.8 mph63%29.59 "Hg2 mi
3:00 AM73 °FPassing clouds.7 mph100%29.59 "Hg2 mi
2:00 AM91 °FPassing clouds.8 mph59%29.59 "Hg2 mi
12:00 AM93 °FPassing clouds.8 mph56%29.59 "Hg2 mi
11:00 PM
Wed, Jun 29
95 °FPassing clouds.7 mph53%29.59 "Hg2 mi
10:30 PM95 °FPassing clouds.5 mph53%29.59 "Hg2 mi
9:30 PM95 °FPassing clouds.7 mph53%29.59 "Hg2 mi
9:00 PM95 °FPassing clouds.8 mph53%29.59 "Hg2 mi
8:30 PM97 °FPassing clouds.9 mph47%29.59 "Hg2 mi
8:00 PM97 °FPassing clouds.7 mph47%29.59 "Hg3 mi
7:00 PM99 °FScattered clouds.9 mph44%29.56 "Hg3 mi
6:30 PM100 °FScattered clouds.12 mph40%29.53 "Hg3 mi
6:00 PM100 °FScattered clouds.14 mph40%29.53 "Hg3 mi
5:30 PM100 °FScattered clouds.12 mph40%29.53 "Hg3 mi
5:00 PM102 °FScattered clouds.13 mph35%29.53 "Hg3 mi
4:30 PM100 °FScattered clouds.12 mph37%29.56 "Hg3 mi
4:00 PM102 °FScattered clouds.13 mph35%29.56 "Hg3 mi
3:00 PM100 °FScattered clouds.13 mph37%29.59 "Hg3 mi
2:30 PM100 °FScattered clouds.12 mph37%29.62 "Hg3 mi
2:00 PM99 °FScattered clouds.13 mph42%29.62 "Hg3 mi
1:00 PM97 °FScattered clouds.13 mph47%29.65 "Hg3 mi
12:00 PM95 °FScattered clouds.13 mph53%29.65 "Hg3 mi
11:30 AM97 °FScattered clouds.13 mph50%29.65 "Hg3 mi
10:30 AM93 °FScattered clouds.13 mph59%29.68 "Hg2 mi
10:00 AM93 °FScattered clouds.13 mph59%29.68 "Hg2 mi
9:30 AM91 °FScattered clouds.13 mph63%29.68 "Hg2 mi
9:00 AM91 °FScattered clouds.13 mph63%29.68 "Hg2 mi
8:30 AM90 °FScattered clouds.12 mph71%29.68 "Hg2 mi
8:00 AM90 °FScattered clouds.14 mph71%29.68 "Hg2 mi
Weather by CustomWeather, © 2016

See weather overviewHow to use our weather pages